• In Hungary
  • List of Countries
  • For 7 days
  • Water Temperature
  • Satellite Maps
  • Weather Map
  • News
  • Weather Widgets
  • user-avatar
    Login

    Hourly Weather Nema

    Today, 18 September, Tuesday

    Time Temperature Precipitation Wind Pressure Humidity
    00:00 +36°C° 0 mm 3 mps 730 mmHg 37%
    01:00 +36°C° 0 mm 2 mps 730 mmHg 39%
    02:00 +35°C° 0 mm 2 mps 730 mmHg 41%
    03:00 +35°C° 0 mm 2 mps 730 mmHg 42%
    04:00 +34°C° 0 mm 2 mps 730 mmHg 44%
    05:00 +34°C° 0 mm 2 mps 730 mmHg 45%
    06:00 +33°C° 0 mm 1 mps 730 mmHg 47%
    07:00 +33°C° 0 mm 1 mps 730 mmHg 45%
    08:00 +34°C° 0 mm 1 mps 731 mmHg 43%
    09:00 +34°C° 0 mm 1 mps 731 mmHg 42%
    10:00 +37°C° 0 mm 2 mps 731 mmHg 37%
    11:00 +38°C° 0 mm 2 mps 731 mmHg 33%
    12:00 +40°C° 0 mm 2 mps 731 mmHg 28%
    13:00 +40°C° 0.1 mm 2 mps 731 mmHg 27%
    14:00 +40°C° 0.1 mm 2 mps 730 mmHg 26%
    15:00 +41°C° 0.1 mm 2 mps 730 mmHg 25%
    16:00 +41°C° 0 mm 2 mps 729 mmHg 25%
    17:00 +41°C° 0 mm 2 mps 729 mmHg 25%
    18:00 +41°C° 0 mm 2 mps 729 mmHg 25%
    19:00 +40°C° 0.1 mm 2 mps 729 mmHg 26%
    20:00 +40°C° 0.1 mm 2 mps 730 mmHg 27%
    21:00 +39°C° 0.1 mm 2 mps 730 mmHg 28%
    22:00 +39°C° 0 mm 2 mps 730 mmHg 29%
    23:00 +38°C° 0 mm 3 mps 730 mmHg 30%

    Tomorrow, 19 September, Wednesday

    Time Temperature Precipitation Wind Pressure Humidity
    00:00 +38°C° 0 mm 3 mps 730 mmHg 31%
    01:00 +37°C° 0 mm 3 mps 729 mmHg 33%
    02:00 +37°C° 0 mm 3 mps 729 mmHg 35%
    03:00 +36°C° 0 mm 4 mps 729 mmHg 37%
    04:00 +35°C° 0 mm 4 mps 729 mmHg 39%
    05:00 +35°C° 0 mm 5 mps 729 mmHg 41%
    06:00 +34°C° 0 mm 5 mps 729 mmHg 43%
    07:00 +35°C° 0 mm 6 mps 730 mmHg 41%
    08:00 +36°C° 0 mm 6 mps 730 mmHg 40%
    09:00 +38°C° 0 mm 7 mps 731 mmHg 38%
    10:00 +39°C° 0 mm 6 mps 731 mmHg 33%
    11:00 +41°C° 0 mm 5 mps 731 mmHg 28%
    12:00 +42°C° 0 mm 4 mps 730 mmHg 23%
    13:00 +43°C° 0 mm 4 mps 730 mmHg 20%
    14:00 +45°C° 0 mm 5 mps 729 mmHg 17%
    15:00 +46°C° 0 mm 5 mps 728 mmHg 13%
    16:00 +46°C° 0 mm 5 mps 728 mmHg 13%
    17:00 +46°C° 0 mm 5 mps 728 mmHg 12%
    18:00 +46°C° 0 mm 5 mps 728 mmHg 12%
    19:00 +44°C° 0 mm 4 mps 728 mmHg 13%
    20:00 +43°C° 0 mm 4 mps 729 mmHg 13%
    21:00 +43°C° 0 mm 3 mps 729 mmHg 14%
    22:00 +42°C° 0 mm 3 mps 729 mmHg 15%
    23:00 +42°C° 0 mm 3 mps 729 mmHg 15%

    Day after tomorrow, 20 September, Thursday

    Time Temperature Precipitation Wind Pressure Humidity
    00:00 +40°C° 0 mm 3 mps 729 mmHg 16%
    01:00 +40°C° 0 mm 3 mps 728 mmHg 17%
    02:00 +39°C° 0 mm 3 mps 728 mmHg 18%
    03:00 +38°C° 0 mm 4 mps 728 mmHg 19%
    04:00 +38°C° 0 mm 4 mps 728 mmHg 21%
    05:00 +38°C° 0 mm 4 mps 728 mmHg 23%
    06:00 +37°C° 0 mm 5 mps 728 mmHg 24%
    07:00 +39°C° 0 mm 6 mps 729 mmHg 23%
    08:00 +40°C° 0 mm 7 mps 729 mmHg 22%
    09:00 +41°C° 0 mm 8 mps 730 mmHg 20%
    10:00 +43°C° 0 mm 8 mps 730 mmHg 19%
    11:00 +44°C° 0 mm 8 mps 730 mmHg 17%
    12:00 +45°C° 0 mm 9 mps 730 mmHg 15%
    13:00 +46°C° 0 mm 8 mps 729 mmHg 14%
    14:00 +46°C° 0 mm 7 mps 728 mmHg 13%
    15:00 +47°C° 0 mm 7 mps 727 mmHg 12%
    16:00 +47°C° 0 mm 6 mps 727 mmHg 13%
    17:00 +46°C° 0 mm 6 mps 727 mmHg 13%
    18:00 +46°C° 0 mm 6 mps 727 mmHg 13%
    19:00 +45°C° 0 mm 5 mps 727 mmHg 14%
    20:00 +43°C° 0 mm 5 mps 728 mmHg 15%
    21:00 +43°C° 0 mm 5 mps 729 mmHg 16%
    22:00 +42°C° 0 mm 5 mps 729 mmHg 17%
    23:00 +42°C° 0 mm 4 mps 729 mmHg 17%

    21 September, Friday

    Time Temperature Precipitation Wind Pressure Humidity
    00:00 +41°C° 0 mm 4 mps 728 mmHg 18%
    01:00 +41°C° 0 mm 4 mps 728 mmHg 21%
    02:00 +40°C° 0 mm 4 mps 728 mmHg 24%
    03:00 +39°C° 0 mm 5 mps 727 mmHg 27%
    04:00 +38°C° 0 mm 4 mps 727 mmHg 29%
    05:00 +37°C° 0 mm 4 mps 728 mmHg 32%
    06:00 +37°C° 0 mm 4 mps 728 mmHg 35%
    07:00 +37°C° 0 mm 4 mps 728 mmHg 37%
    08:00 +37°C° 0 mm 5 mps 729 mmHg 39%
    09:00 +37°C° 0 mm 5 mps 730 mmHg 41%
    10:00 +39°C° 0 mm 5 mps 729 mmHg 37%
    11:00 +40°C° 0 mm 4 mps 729 mmHg 33%
    12:00 +42°C° 0 mm 4 mps 729 mmHg 28%
    13:00 +42°C° 0 mm 3 mps 728 mmHg 26%
    14:00 +42°C° 0 mm 2 mps 728 mmHg 23%
    15:00 +43°C° 0 mm 1 mps 727 mmHg 20%
    16:00 +43°C° 0.1 mm 1 mps 727 mmHg 20%
    17:00 +43°C° 0.1 mm 1 mps 727 mmHg 19%
    18:00 +43°C° 0.1 mm 1 mps 727 mmHg 19%
    19:00 +42°C° 0 mm 2 mps 727 mmHg 21%
    20:00 +42°C° 0 mm 3 mps 728 mmHg 23%
    21:00 +42°C° 0 mm 4 mps 728 mmHg 25%
    22:00 +40°C° 0 mm 5 mps 728 mmHg 31%
    23:00 +39°C° 0 mm 6 mps 728 mmHg 36%

    22 September, Saturday

    Time Temperature Precipitation Wind Pressure Humidity
    00:00 +36°C° 0 mm 7 mps 728 mmHg 42%
    01:00 +36°C° 0.1 mm 7 mps 728 mmHg 44%
    02:00 +35°C° 0.1 mm 7 mps 728 mmHg 46%
    03:00 +34°C° 0.1 mm 7 mps 728 mmHg 48%
    04:00 +34°C° 0.1 mm 7 mps 728 mmHg 48%
    05:00 +33°C° 0.1 mm 7 mps 728 mmHg 48%
    06:00 +33°C° 0.1 mm 7 mps 729 mmHg 48%
    07:00 +34°C° 0 mm 7 mps 729 mmHg 46%
    08:00 +34°C° 0 mm 7 mps 730 mmHg 44%
    09:00 +35°C° 0 mm 8 mps 731 mmHg 42%
    10:00 +36°C° 0 mm 7 mps 731 mmHg 39%
    11:00 +39°C° 0 mm 7 mps 731 mmHg 35%
    12:00 +40°C° 0 mm 6 mps 731 mmHg 32%
    13:00 +41°C° 0 mm 6 mps 730 mmHg 31%
    14:00 +41°C° 0 mm 5 mps 729 mmHg 29%
    15:00 +42°C° 0 mm 5 mps 729 mmHg 27%
    16:00 +42°C° 0 mm 5 mps 729 mmHg 28%
    17:00 +41°C° 0 mm 4 mps 729 mmHg 28%
    18:00 +41°C° 0 mm 4 mps 729 mmHg 28%
    19:00 +41°C° 0 mm 4 mps 729 mmHg 30%
    20:00 +40°C° 0 mm 4 mps 730 mmHg 32%
    21:00 +39°C° 0 mm 3 mps 730 mmHg 33%
    22:00 +38°C° 0.1 mm 4 mps 730 mmHg 35%
    23:00 +38°C° 0.1 mm 4 mps 730 mmHg 36%

    23 September, Sunday

    Time Temperature Precipitation Wind Pressure Humidity
    00:00 +37°C° 0.1 mm 4 mps 730 mmHg 38%
    01:00 +37°C° 0 mm 4 mps 729 mmHg 39%
    02:00 +37°C° 0 mm 4 mps 729 mmHg 40%
    03:00 +36°C° 0 mm 4 mps 729 mmHg 40%
    04:00 +36°C° 0 mm 4 mps 729 mmHg 42%
    05:00 +36°C° 0 mm 4 mps 729 mmHg 43%
    06:00 +35°C° 0 mm 4 mps 729 mmHg 44%
    07:00 +36°C° 0 mm 4 mps 730 mmHg 44%
    08:00 +36°C° 0 mm 4 mps 730 mmHg 44%
    09:00 +36°C° 0 mm 4 mps 731 mmHg 44%
    10:00 +37°C° 0 mm 4 mps 731 mmHg 41%
    11:00 +38°C° 0 mm 4 mps 731 mmHg 38%
    12:00 +40°C° 0 mm 4 mps 730 mmHg 35%
    13:00 +40°C° 0 mm 3 mps 730 mmHg 33%
    14:00 +41°C° 0 mm 2 mps 729 mmHg 30%
    15:00 +41°C° 0 mm 2 mps 728 mmHg 28%
    16:00 +41°C° 0 mm 1 mps 728 mmHg 28%
    17:00 +41°C° 0 mm 1 mps 729 mmHg 28%
    18:00 +41°C° 0 mm 1 mps 729 mmHg 28%
    19:00 +40°C° 0 mm 1 mps 729 mmHg 28%
    20:00 +40°C° 0 mm 2 mps 729 mmHg 29%
    21:00 +40°C° 0 mm 2 mps 730 mmHg 30%
    22:00 +39°C° 0 mm 2 mps 730 mmHg 31%
    23:00 +39°C° 0 mm 2 mps 729 mmHg 33%
    Show more